STARLINK-11249, 60728

Orbit data source: Space-Track

STARLINK-11249, 60728 is a payload satellite owned by SpaceX/Seattle (US) in LEO that was launched on Wed, 28 Aug 2024 UTC via an FALCON 9 launch vehicle from the Air Force Eastern Test Range (AFETR). Payload-class satellites include a variety of spacecraft equipped with specific instruments for various scientific and technological missions. These include communications satellites like Starlink; space stations such as the ISS; scientific satellites like the Hubble; Earth observation satellites from companies like Planet Labs, Umbra, and HawkEye 360; GPS; miniature CubeSats for education and research; and military/defense satellites.

Loading next visibility...
Identifier
60728, 2024-152J
Orbit
LEO
Last TLE update
9 hours ago
Origin
Manufacturer
SpaceX/Seattle
Mission
Operational Commercial Communications
Bus & Motor
STARLINK V2M, Unknown motor
Mass
730 kg wet, ~700 kg dry
Launch date (UTC)
2024-08-28 (10 months ago)
Launch vehicle
FALCON 9
Launch site
Air Force Eastern Test Range (AFETR)
Object type
Payload
Rocket body
Debris
Shape & HBR
Box + 2 Pan, 29 m
Radar Cross Section
36.964 m², Large (>1 m²)

Expand to show TLE details & history

TLE from 9 hours ago
0 STARLINK-11249
1 60728U 24152J   25187.58682297 -.00000746  00000-0 -12962-5 0  9991
2 60728  53.1585 249.3166 0001278  81.0653 279.0509 15.69713841 50185
Epoch: 2025-07-06T14:05Z
TLE epoch observation values (Epoch: 2025-07-06T14:05:01.504Z)
Latitude
-0.00007°
Longitude
113.2519°
Altitude
360.495 km
Speed
7.694 km/s
True Right ascension
16h 37m 15s
True Declination
0° 00' 00"
Sunlit
Object was in full shadow at epoch
Visualization orbit readout
Latitude
-48.10463°
Longitude
55.27888°
Altitude
376.941 km
Speed
7.683 km/s
Apparent Right ascension
18h 30m 03s
Apparent Declination
-76° 16' 20"
Sunlit
Object is in daylight
Visualization observer readout
Local Sidereal Time
10:57:59
Azimuth
162.328° S
Elevation
-43.988°
Doppler factor
1
Orbital elements
Apogee altitude
360.838 km
Perigee altitude
359.116 km
Semi-major axis
6,738.114 km
Eccentricity
0.00013
Inclination
53.1585°
RAAN
249.3166°
Arg. of periapsis
81.0653°
True anomaly
Unknown
Mean anomaly
279.0509°
Eccentric anomaly
Unknown
Mean motion
3.92406 °/min
Orbital period
91.74 mins
BSTAR
-0.0000012962
Loading maneuver chart data...
Loading SW <> Apogee altitude chart data...
Loading historical data...
Loading historical data...
Loading historical data...
Loading historical data...
Loading historical data...
Loading historical data...
Loading historical data...

STARLINK-11249 Visibility forecast

Observer location: undefined°, undefined°

Span
Click to sort rows by Start time (UTC) header in descending order
Start Az.
Max El. time (UTC)
Max El. Az.
Max El.
End time (UTC)
End Az.
5 mins2025-07-07 07:04:46.161Z238.021° WSW2025-07-07 07:07:46.161Z1.122° NNE41.168°2025-07-07 07:09:46.161Z43.315° NE
4 mins2025-07-07 13:30:46.161Z319.049° NNW2025-07-07 13:31:46.161Z339.395° N40.021°2025-07-07 13:34:46.161Z123.707° SE
|